GFSGL_850_thetae_138.txt.gz
Theta_e
297 296 295 295 294 293 293 292 293 293 294 293 291 290 292 291 292 291 291 291 291 291 292 290 290 291 291 291 292 293 293 293 294 297 296 298 301 303 305 308 311 314 316
295 293 294 293 292 292 291 291 291 290 290 291 289 287 290 290 290 290 289 289 290 289 287 290 290 291 290 289 290 291 292 291 292 292 292 295 297 300 302 306 308 311 313
294 293 293 292 292 291 291 290 289 289 288 287 287 285 287 288 287 286 285 284 284 285 283 285 288 289 289 288 288 290 291 289 289 290 291 292 294 297 300 301 302 306 310
293 293 293 292 291 291 289 288 288 287 286 286 284 284 285 285 285 285 284 282 282 282 282 282 283 285 287 286 287 287 287 287 287 288 289 289 292 293 295 298 301 300 304
293 292 292 291 291 289 288 287 286 285 285 284 283 283 284 284 283 284 283 282 281 281 281 281 281 282 282 283 284 285 286 285 284 284 286 286 288 289 290 292 293 295 295
293 292 291 291 289 287 286 285 284 283 283 282 282 282 283 283 282 282 282 281 280 281 281 281 280 280 280 281 281 282 283 282 282 281 281 281 282 284 285 287 289 291 291
292 291 290 289 287 285 284 284 283 282 282 281 281 281 282 282 282 281 281 280 280 280 280 280 280 279 279 280 280 280 281 281 280 279 279 279 279 279 282 284 285 287 287
291 290 289 286 285 284 284 283 282 281 281 281 280 280 280 280 280 280 280 279 279 280 280 278 278 278 279 279 279 279 279 280 279 278 278 278 279 279 280 280 281 283 285
291 289 287 285 284 283 283 282 282 282 281 281 279 279 280 280 279 279 279 279 279 279 278 277 277 277 276 277 278 278 278 278 277 277 277 277 277 278 279 280 281 282 282
290 288 285 284 283 282 282 282 282 282 282 281 279 279 279 280 279 279 279 279 278 278 277 277 276 276 275 277 278 278 278 277 278 278 278 278 278 277 277 277 277 278 277
288 284 283 283 282 282 282 282 281 281 281 281 279 278 278 278 278 277 278 278 278 277 277 276 275 275 275 277 277 277 276 276 277 278 278 278 278 278 277 276 275 275 276
285 284 283 282 282 282 282 281 281 281 281 280 278 277 277 278 277 276 276 276 276 276 276 275 275 275 275 275 276 276 276 277 277 277 278 278 278 277 277 276 276 275 274
285 283 283 282 282 282 282 282 281 281 280 279 277 277 277 276 276 276 276 276 276 276 275 275 275 275 274 275 275 275 275 276 275 275 275 274 274 275 276 277 277 277 276
284 282 282 282 282 282 282 281 281 281 280 278 277 276 276 276 276 276 275 275 275 275 275 274 274 273 273 274 274 274 274 274 273 273 273 273 273 273 274 274 275 276 277
282 282 282 282 281 281 281 280 280 279 277 277 276 276 277 276 276 276 275 275 275 274 274 274 274 274 274 274 274 273 273 273 273 272 272 272 272 272 272 272 272 272 272
281 282 282 282 281 278 278 277 277 277 277 276 275 276 276 275 275 275 274 274 275 274 274 274 274 274 273 273 273 272 272 271 271 271 270 270 270 270 271 271 270 270 270
282 282 282 281 280 279 280 279 279 277 276 276 275 275 275 275 274 274 274 274 274 273 274 274 273 273 272 272 271 271 271 270 270 270 270 270 270 270 269 269 268 268 268
283 282 282 281 281 281 280 280 279 278 278 277 275 274 275 274 275 274 274 273 273 273 274 273 272 272 272 272 272 271 271 271 270 270 269 269 268 268 268 267 267 266 266
283 283 282 281 281 280 280 279 278 278 277 277 276 275 274 274 275 274 274 273 273 273 273 273 272 272 272 271 271 270 270 270 269 269 268 268 267 267 266 266 265 266 264
283 283 282 281 281 280 279 279 278 278 277 276 276 276 274 274 274 274 273 273 273 273 273 272 272 271 271 271 271 270 270 270 269 268 268 267 267 266 265 265 265 265 264
283 282 281 281 280 279 279 278 278 277 277 276 276 275 274 273 273 273 273 273 273 272 272 272 272 271 271 270 270 270 269 269 269 268 267 267 266 266 265 265 264 264 264
283 282 281 279 279 279 278 278 277 277 276 276 275 274 274 273 273 273 273 273 273 272 272 272 271 271 271 270 270 269 269 269 268 268 267 266 265 265 264 264 264 264 263
281 280 279 279 279 278 278 277 276 276 275 275 274 274 274 273 273 273 272 272 272 272 271 271 271 270 270 269 269 269 269 269 268 267 266 265 265 264 264 264 263 263 263
279 279 279 278 278 277 276 276 275 275 274 274 274 273 273 273 273 272 272 272 271 271 271 271 270 270 270 269 269 268 268 267 267 266 265 265 265 264 264 264 263 263 263
279 278 278 278 277 276 275 275 275 274 274 273 273 273 273 273 272 272 271 271 271 270 270 270 270 270 269 269 269 268 268 267 266 266 265 265 264 264 264 263 263 263 263
279 278 278 277 277 276 275 275 274 274 273 273 273 272 272 272 272 271 271 271 270 270 270 270 270 269 269 269 268 268 268 267 267 266 265 265 264 264 263 263 263 263 263

GFSGL_850_thetae_141.txt.gz
Theta_e
300 300 299 297 296 295 294 294 294 292 291 291 290 289 291 291 292 292 291 291 291 291 291 291 292 293 291 290 290 290 291 290 290 292 292 294 297 299 301 304 304 306 307
298 297 296 295 295 294 293 293 291 290 289 288 287 287 288 289 289 287 286 285 286 286 285 287 290 290 290 289 289 289 290 288 289 289 291 292 292 295 297 298 302 305 306
297 295 295 294 293 292 291 291 289 288 287 286 285 285 286 286 286 285 284 283 283 283 283 283 284 285 287 287 287 288 289 288 287 287 288 288 290 292 294 295 298 300 302
296 294 294 293 292 291 290 289 288 287 286 285 284 284 285 285 284 284 282 282 282 282 282 282 282 283 283 284 284 285 285 285 285 285 286 285 286 286 288 290 293 297 299
295 293 293 293 292 290 289 287 286 285 284 284 283 284 284 284 283 283 282 282 282 281 281 280 280 280 280 281 282 282 282 283 282 282 282 282 284 284 285 285 287 289 293
294 293 293 292 291 289 287 286 285 284 283 283 283 283 284 283 282 282 281 281 281 281 281 280 280 280 280 280 280 280 280 281 280 280 279 280 280 281 282 282 283 286 287
294 293 292 291 289 287 286 285 284 282 282 282 282 282 282 282 281 280 280 280 280 280 280 280 279 279 279 279 279 279 279 279 278 277 278 278 278 279 280 282 282 283 283
293 293 292 290 287 285 284 284 282 282 281 281 282 281 281 280 279 279 279 279 279 279 279 278 279 278 278 278 278 278 278 278 277 277 277 277 277 278 278 279 280 280 281
293 292 291 288 286 284 284 283 282 282 281 280 280 280 280 279 278 278 278 278 278 278 278 277 277 277 277 277 277 277 276 276 276 276 275 275 276 277 278 279 281 281 280
292 291 289 286 284 283 283 282 282 282 281 280 279 279 279 278 277 277 277 278 278 278 277 277 276 275 275 277 277 277 277 276 276 276 276 276 276 276 276 276 276 276 277
291 290 288 284 283 282 282 282 282 282 281 280 278 278 278 278 277 277 277 277 277 277 277 276 276 274 274 276 276 276 275 276 277 277 277 277 277 276 276 275 274 274 274
291 289 285 283 282 282 282 282 281 281 281 280 278 277 277 278 277 277 276 276 276 277 277 276 276 276 275 276 276 275 275 276 276 277 277 277 276 276 275 274 274 273 272
289 285 282 282 282 282 282 281 281 281 280 279 277 277 277 276 276 276 276 276 276 276 276 275 275 275 275 276 276 276 276 276 276 277 276 275 275 275 275 276 276 275 274
286 283 282 282 282 282 282 281 281 281 280 278 277 277 276 276 276 276 276 276 276 275 275 275 275 276 276 275 275 275 275 275 275 275 274 274 274 275 276 276 276 276 276
284 283 282 282 282 282 282 281 281 280 279 277 276 276 276 277 276 276 276 276 276 275 275 274 274 274 275 275 275 274 274 274 274 274 274 274 273 273 273 273 273 273 272
284 282 282 282 282 282 281 280 279 278 277 275 275 276 276 276 275 275 275 276 275 274 274 274 275 275 275 274 274 274 273 273 272 272 272 271 271 271 271 271 271 270 270
283 282 282 282 281 280 279 278 277 276 276 275 275 275 275 275 275 274 274 275 274 274 274 275 275 274 274 273 273 272 272 271 271 271 271 271 271 271 271 270 270 269 270
282 282 282 282 281 279 279 279 279 279 278 276 275 275 275 275 275 274 274 274 274 274 274 274 274 273 273 273 272 272 271 271 271 271 271 271 270 269 269 268 267 266 267
282 283 282 281 281 280 280 280 279 278 278 277 275 275 274 275 274 274 274 274 273 274 274 273 273 273 272 272 272 271 271 271 271 270 270 269 269 268 268 267 266 266 266
284 283 282 282 281 280 280 280 279 278 277 277 276 275 275 275 274 274 273 273 273 273 273 273 273 272 272 272 271 271 271 271 270 270 269 268 268 267 267 266 266 265 265
284 283 282 282 281 280 280 280 279 278 278 277 276 276 275 274 273 273 273 273 273 273 273 272 272 272 272 271 271 271 270 270 270 269 269 268 268 267 266 265 265 265 264
283 283 282 281 281 280 280 279 278 278 277 277 276 275 274 274 273 273 273 273 273 272 272 272 272 272 271 271 271 270 270 270 269 269 268 268 267 266 266 265 265 264 264
283 283 282 281 280 279 279 278 278 277 277 276 276 275 274 273 273 272 272 272 272 272 272 272 271 271 271 270 270 270 270 269 269 269 268 267 267 266 265 265 264 264 263
282 282 282 280 279 279 279 278 277 276 276 275 275 274 273 273 273 272 272 272 272 272 271 271 271 271 270 270 270 269 269 269 269 268 268 267 266 265 265 264 264 263 263
280 279 279 279 279 278 278 277 276 275 275 274 274 273 273 272 272 272 271 271 271 271 271 271 271 270 270 270 269 269 268 268 268 268 267 266 266 265 264 264 263 263 263
279 279 278 278 278 277 276 276 275 275 274 274 273 273 272 272 271 271 271 271 271 270 270 270 270 269 269 269 268 268 268 268 267 267 267 266 266 265 264 264 263 263 263

GFSGL_850_thetae_144.txt.gz
Theta_e
298 299 298 298 297 297 297 296 295 294 291 289 289 289 289 289 289 288 287 286 286 287 286 288 290 291 290 290 290 290 290 290 289 290 291 293 294 296 298 300 302 297 298
298 298 297 296 296 297 296 295 293 291 289 288 287 287 287 287 287 286 285 284 284 284 284 284 285 286 287 288 289 290 290 289 289 289 290 290 290 292 293 295 297 296 294
297 297 296 296 296 296 295 293 291 289 288 287 286 286 286 286 285 284 283 283 283 283 283 283 283 283 284 284 285 285 285 285 286 285 285 285 286 288 289 290 294 295 291
297 296 296 296 295 294 293 292 289 287 286 286 285 285 284 284 284 283 283 282 282 282 282 282 282 282 282 282 282 282 283 282 282 282 282 283 284 284 285 287 289 295 290
297 296 295 295 294 293 292 289 287 286 286 285 284 284 284 283 283 283 282 281 281 281 282 281 281 281 281 281 281 281 282 281 281 281 281 281 282 284 284 284 285 288 291
297 296 294 293 293 292 289 287 286 285 284 283 283 283 283 282 283 282 280 281 281 281 281 280 279 279 279 280 280 280 280 280 280 280 279 280 280 280 280 281 284 285 285
296 295 293 293 292 291 288 286 285 284 283 282 282 282 282 282 282 280 279 280 280 280 280 279 278 279 279 278 278 279 279 279 278 278 278 278 278 278 279 280 281 281 281
296 294 293 292 292 288 286 285 284 283 282 282 281 281 281 281 280 279 279 279 279 279 279 278 278 278 277 277 278 278 278 278 278 277 277 277 278 278 277 278 279 279 279
297 293 292 291 290 287 285 284 283 282 282 281 280 280 280 280 279 278 278 278 278 278 278 277 277 277 276 276 277 277 277 277 276 276 276 276 276 277 278 278 279 280 279
296 293 292 291 288 285 284 283 282 282 282 281 279 279 280 279 278 278 277 277 277 277 277 277 275 276 277 277 277 277 277 275 275 275 275 275 276 276 276 276 276 276 276
294 292 291 288 285 284 283 282 282 282 281 280 278 278 279 279 277 277 276 277 277 277 276 276 275 275 276 276 276 276 276 275 275 276 276 275 275 275 274 274 274 274 274
293 291 290 286 284 283 282 282 282 282 281 279 277 278 278 278 277 276 276 276 276 276 276 275 275 275 275 275 275 275 275 275 275 276 276 276 275 275 274 274 273 273 273
292 291 288 285 283 282 282 282 282 281 280 278 277 277 277 277 277 276 276 276 276 276 276 275 275 275 275 275 275 275 275 276 276 276 275 275 274 274 274 275 274 274 273
292 289 285 283 282 282 282 282 281 281 280 278 277 277 277 277 277 276 276 276 276 275 275 275 275 275 275 275 275 275 275 275 275 275 274 274 274 274 274 274 275 275 275
290 286 283 282 282 282 282 282 281 280 279 278 277 277 277 277 277 276 276 276 275 275 275 275 274 274 275 275 275 275 275 275 275 274 274 274 273 274 274 274 274 274 273
288 284 283 282 282 282 282 281 280 280 279 276 276 276 276 276 275 275 276 275 275 275 275 274 275 275 275 275 274 274 274 274 273 273 273 273 273 273 272 272 272 271 271
288 285 283 282 282 282 282 281 280 279 277 275 275 276 276 275 275 274 275 275 275 275 274 274 274 274 274 274 274 274 274 273 272 272 272 271 271 271 271 271 271 271 270
287 286 282 282 282 282 281 281 279 278 276 275 275 275 275 275 274 275 274 275 274 274 274 274 274 274 274 273 273 273 272 272 271 271 271 271 270 270 270 269 268 268 268
286 283 282 282 282 280 279 278 279 278 277 277 276 275 275 275 275 274 274 274 274 273 274 274 274 273 273 273 273 272 272 271 271 270 270 270 270 269 269 268 267 267 267
284 282 282 282 281 279 279 280 279 278 277 276 276 275 276 275 275 274 274 273 273 273 273 273 273 273 273 273 272 272 271 271 270 270 270 269 269 268 268 267 267 266 266
282 283 282 282 281 281 280 280 280 279 278 277 277 276 276 275 274 274 273 273 273 273 273 273 273 272 272 272 272 271 271 271 270 270 270 269 268 268 267 267 266 265 265
284 283 282 282 281 281 280 280 280 279 278 277 277 276 276 275 274 273 273 273 273 272 272 272 272 272 272 271 271 271 271 270 270 269 269 269 268 268 267 267 266 266 265
284 283 282 282 282 281 280 280 279 278 278 277 277 276 275 274 274 273 273 272 272 272 272 272 272 272 271 271 271 270 270 270 270 269 269 268 268 267 267 266 266 265 265
284 283 283 282 281 281 280 279 278 278 277 277 276 275 275 274 273 273 273 272 272 272 272 272 271 271 271 270 270 270 270 269 269 269 269 268 268 267 266 266 265 264 264
283 282 282 282 281 279 279 278 278 277 276 276 275 274 274 273 273 273 272 272 271 271 271 271 271 271 270 270 270 269 269 268 268 268 268 267 267 266 266 266 265 264 263
282 281 281 280 279 279 278 278 277 276 275 275 274 274 273 273 272 272 272 271 271 271 271 271 270 270 270 270 269 269 268 268 268 267 267 267 267 266 266 265 265 264 263

GFSGL_850_thetae_147.txt.gz
Theta_e
299 299 300 300 298 297 297 296 296 294 292 291 290 289 288 288 288 287 287 286 286 285 285 285 286 287 288 289 290 290 289 289 288 289 290 290 291 291 291 293 293 295 296
299 299 299 298 298 297 296 296 294 293 291 289 288 288 287 287 287 286 286 285 284 284 284 284 284 284 284 285 286 287 287 287 288 287 287 287 286 286 289 291 291 290 293
298 299 298 298 297 296 295 295 292 290 289 288 287 287 287 286 286 286 285 284 283 283 283 282 283 282 282 282 282 282 282 282 282 282 282 282 282 282 284 290 290 289 291
298 298 298 297 296 294 294 293 291 289 287 286 286 286 286 286 286 285 284 283 282 282 282 282 281 281 281 281 281 281 281 281 281 281 281 281 281 282 281 284 289 289 285
298 298 297 296 294 294 293 291 290 287 286 285 285 286 286 285 285 284 283 282 281 281 281 281 281 280 280 281 280 281 280 280 280 279 279 280 280 281 281 281 283 288 284
297 296 295 294 294 293 292 290 287 285 285 284 285 285 285 284 283 283 281 281 281 281 281 281 280 280 280 280 280 280 280 280 280 280 281 281 280 279 279 279 281 282 282
296 295 294 294 294 293 291 288 286 285 284 284 284 284 284 283 282 281 280 281 281 281 281 280 279 279 279 279 279 279 279 279 280 279 279 278 278 278 279 280 280 280 279
296 296 295 293 292 292 289 286 285 283 283 283 283 283 282 281 281 280 280 280 280 280 280 279 279 278 278 278 278 278 279 279 279 278 278 278 278 278 279 279 279 279 279
297 295 294 293 292 292 288 285 283 282 282 283 282 282 282 281 280 280 279 279 279 280 280 279 278 278 278 277 278 278 277 277 277 276 276 277 277 278 278 279 280 280 279
296 295 294 293 292 289 285 283 282 281 281 281 281 280 280 280 279 279 278 278 278 278 277 277 277 278 277 277 277 277 277 276 275 275 275 276 277 277 277 278 277 278 277
296 295 293 292 290 287 284 283 282 282 281 280 280 280 280 279 279 278 277 277 277 277 276 277 277 277 277 277 277 277 277 276 276 276 276 276 276 276 276 276 275 275 275
295 293 292 291 288 285 283 282 282 282 280 279 279 279 278 278 278 278 277 277 276 276 276 276 276 276 276 276 276 276 275 275 275 276 276 275 275 274 274 274 274 274 273
294 292 291 290 287 284 283 282 282 280 280 279 278 278 278 277 276 276 277 277 276 276 276 275 275 275 275 275 275 275 275 275 275 276 275 275 274 274 274 274 274 274 274
293 292 291 289 286 283 282 282 282 281 279 278 278 277 277 277 277 276 276 276 275 275 275 274 274 274 275 275 275 275 275 275 275 275 274 274 273 274 273 274 273 273 273
294 291 290 287 284 282 282 282 281 280 279 279 278 277 277 277 277 276 276 276 275 275 274 274 274 274 274 274 275 275 274 274 274 274 274 274 273 273 273 273 273 273 272
292 290 289 285 282 282 282 281 281 280 279 277 277 277 277 277 276 276 275 275 275 275 274 274 274 274 274 274 274 274 274 274 274 273 273 273 273 272 272 272 272 272 271
292 289 286 283 282 282 282 281 280 279 279 276 276 276 276 276 275 274 275 275 275 275 274 274 274 274 274 274 274 274 273 273 273 272 272 272 272 272 271 271 271 271 271
290 288 286 284 283 282 282 282 281 280 278 275 276 276 276 276 275 274 274 274 274 274 274 274 274 274 274 273 273 273 273 272 272 272 272 272 271 271 271 270 270 269 269
289 288 286 285 282 282 282 281 281 279 277 276 276 275 275 275 274 274 274 274 274 274 274 274 273 273 273 273 273 273 272 272 271 271 271 271 270 270 269 269 268 268 267
288 286 285 282 282 282 281 281 279 277 277 276 276 275 276 275 275 274 274 274 273 273 273 273 273 273 273 273 272 272 272 271 271 270 270 270 269 269 269 268 268 267 266
286 285 282 282 282 281 279 278 278 278 278 277 276 276 275 275 275 275 274 274 273 273 273 273 273 272 272 272 272 272 271 271 270 270 269 269 269 269 268 268 267 267 265
284 283 282 282 282 280 279 280 279 279 278 277 277 276 276 275 275 274 274 273 273 272 272 272 272 272 272 272 272 271 271 270 270 269 269 269 269 268 268 267 267 266 265
284 283 283 282 281 281 280 280 280 279 279 278 277 277 276 276 275 274 273 273 272 272 272 272 272 272 271 271 271 271 270 270 270 269 269 269 268 268 268 267 267 266 266
284 283 282 282 282 281 281 280 280 279 279 278 278 277 276 276 274 274 273 273 272 272 272 271 271 271 271 271 270 270 270 269 269 269 268 268 268 267 267 267 266 266 265
284 284 283 282 282 281 281 280 279 279 278 278 277 276 276 275 274 273 273 272 272 272 271 271 271 271 270 270 270 270 269 269 268 268 268 268 267 267 267 266 266 266 265
284 283 282 282 281 281 280 279 279 278 278 277 276 275 275 274 273 273 273 272 272 271 271 270 270 270 270 270 269 269 269 268 268 268 267 267 267 266 266 266 265 265 264

GFSGL_850_thetae_150.txt.gz
Theta_e
299 299 299 299 300 300 299 298 298 297 293 291 291 290 290 289 289 288 287 287 287 286 286 286 286 286 286 286 286 287 287 288 287 289 288 286 286 285 289 290 288 289 289
299 299 299 299 299 298 298 298 297 293 292 290 290 289 289 288 287 286 286 286 285 286 286 286 285 286 286 285 285 285 285 286 285 287 286 284 283 282 288 289 288 285 289
298 298 298 299 298 296 296 298 293 293 289 288 288 288 287 287 286 285 285 285 285 285 285 285 284 284 285 284 284 284 284 284 284 284 284 282 281 281 282 288 288 285 284
297 297 298 297 296 296 297 294 292 291 288 287 287 287 286 286 285 285 285 284 285 285 284 283 282 282 282 282 282 282 282 283 283 283 282 281 280 279 280 283 285 285 284
298 297 296 295 295 296 294 292 292 287 287 287 286 286 285 284 284 284 284 284 284 284 283 282 282 281 281 281 281 281 281 280 281 281 281 280 279 278 279 280 284 287 285
297 297 295 294 295 294 292 291 288 286 286 286 285 284 283 284 284 283 283 283 283 282 281 280 279 278 281 281 280 281 281 280 279 279 278 278 278 277 278 279 282 282 283
296 293 293 294 293 292 291 289 286 285 285 285 284 284 283 283 283 282 283 283 282 282 281 280 279 279 279 279 279 280 280 280 279 278 277 277 278 279 278 278 279 281 279
295 294 293 293 294 294 292 289 285 284 284 284 283 283 282 282 281 281 282 282 282 281 281 280 279 280 279 279 279 279 279 279 279 278 278 278 278 278 280 278 278 280 279
296 294 294 296 294 293 291 287 284 283 283 283 282 282 282 281 280 281 282 281 281 280 280 279 278 279 279 278 278 279 278 278 278 277 277 277 278 278 279 279 278 278 279
296 295 295 294 292 292 289 286 284 283 283 282 282 281 280 280 280 280 281 280 279 278 278 278 278 278 278 278 278 278 278 277 277 277 277 277 277 277 278 278 278 277 277
297 295 294 293 292 290 287 284 283 282 282 281 281 280 280 280 279 280 280 279 279 278 278 277 277 277 278 277 277 277 277 277 276 276 276 276 276 277 277 277 277 277 276
297 294 293 292 290 290 286 283 282 282 281 280 280 279 279 279 279 279 278 279 278 277 277 276 277 277 277 277 277 276 276 276 276 276 276 276 276 276 275 275 275 275 275
294 293 293 290 290 287 284 283 282 282 280 280 280 279 279 278 278 278 278 278 277 277 277 276 276 276 276 276 276 275 276 276 276 276 275 275 275 275 275 275 274 274 273
294 293 291 290 288 283 282 282 281 281 281 281 281 280 279 278 277 277 277 277 277 276 276 276 276 275 275 275 275 275 275 275 275 275 275 274 274 274 274 274 273 273 273
293 291 290 290 286 282 281 281 281 281 281 281 281 280 279 278 277 277 278 277 277 276 275 275 275 275 275 275 275 275 275 275 274 274 274 274 273 272 272 272 272 273 273
291 290 289 288 282 281 281 280 281 281 280 279 279 279 278 278 278 277 277 277 276 276 275 274 274 274 274 274 274 274 274 274 274 273 273 273 272 272 272 272 272 272 272
291 290 287 283 283 282 281 281 281 280 279 277 277 277 277 278 277 276 276 276 275 275 274 273 273 273 274 274 274 274 273 273 273 273 273 273 272 271 271 271 271 271 271
291 290 288 285 283 282 282 281 280 280 279 277 276 276 276 276 275 275 275 275 274 274 273 273 273 273 273 273 273 273 273 273 273 273 272 272 272 271 270 270 270 270 270
291 289 288 286 284 282 281 280 279 279 278 278 277 277 277 276 275 275 274 274 274 273 273 273 273 273 273 273 273 273 273 273 272 272 272 272 271 271 270 269 269 269 269
289 289 287 285 283 282 280 280 279 279 278 277 277 277 276 276 275 274 274 273 273 273 273 273 273 273 273 273 273 272 272 272 272 271 271 271 271 270 269 268 268 268 268
288 287 285 284 282 280 280 280 279 279 278 278 278 277 276 275 275 274 274 274 273 273 273 273 273 273 273 272 272 272 271 271 271 271 271 270 270 270 268 267 267 267 267
287 285 284 283 281 281 280 280 279 278 278 278 277 277 276 275 274 274 275 274 273 273 273 273 273 272 272 272 272 271 271 271 271 270 270 270 269 268 267 266 266 266 266
285 284 283 282 282 282 280 279 279 279 278 277 277 276 276 275 274 274 275 274 273 273 273 272 272 272 272 272 271 271 270 270 270 270 269 269 269 267 267 266 265 265 265
284 283 283 282 282 281 280 279 279 279 278 277 276 277 277 276 275 275 274 274 273 273 273 272 272 272 271 271 271 271 270 270 270 269 269 268 268 267 267 266 265 264 264
284 283 283 282 282 281 280 280 279 279 279 278 277 277 277 277 276 275 274 274 273 273 272 272 271 271 271 271 270 270 270 269 269 269 268 268 268 267 267 267 265 265 263
284 284 283 283 282 281 281 280 279 279 279 278 278 277 277 276 276 275 274 273 273 272 272 271 271 271 270 270 270 270 269 269 269 268 268 267 267 267 266 265 265 264 263

GFSGL_850_thetae_156.txt.gz
Theta_e
310 310 310 309 307 305 304 303 302 301 300 299 299 297 295 293 293 293 293 290 291 290 290 289 289 290 290 290 290 289 290 289 289 289 290 289 287 285 284 287 287 287 288
308 308 308 306 304 304 303 301 300 299 298 298 296 295 294 293 292 292 291 290 290 290 290 289 289 290 289 288 288 288 288 287 287 288 288 286 285 283 284 285 287 287 287
306 305 304 303 303 302 301 300 298 297 297 296 295 292 292 291 292 292 290 289 289 289 288 288 288 288 288 287 286 286 286 287 287 287 286 285 283 282 283 284 286 287 287
306 304 303 302 301 300 298 297 296 295 295 293 291 291 291 290 290 290 289 288 287 287 287 286 286 286 286 286 286 285 285 285 285 285 285 283 282 281 282 285 285 286 287
305 303 302 301 299 298 297 295 295 294 293 291 290 290 289 290 288 288 288 287 286 286 285 284 283 283 284 284 284 285 285 284 284 283 283 281 280 281 282 283 284 283 285
304 303 301 300 298 297 296 294 291 291 291 291 291 291 288 288 287 288 287 286 285 285 284 283 282 282 282 282 283 284 283 284 284 282 281 280 280 280 281 282 283 282 279
303 301 300 298 296 296 294 292 290 292 291 292 290 289 289 286 286 287 286 285 284 284 283 282 281 282 282 281 282 282 282 283 283 281 280 279 280 280 281 281 281 282 281
301 300 298 295 293 293 292 291 291 294 292 290 290 290 286 284 285 286 285 285 285 284 283 282 283 282 281 282 281 281 281 281 281 280 279 279 279 279 281 280 281 282 281
300 298 296 295 294 294 294 293 291 291 291 290 289 289 284 283 283 284 284 284 283 283 282 282 281 280 280 281 281 281 281 281 280 280 280 278 278 279 279 280 281 282 280
298 295 294 294 293 292 291 290 289 289 288 287 287 285 283 282 281 282 282 282 282 282 281 280 280 280 279 280 280 280 280 280 280 279 279 278 278 278 279 279 279 279 278
295 294 293 293 292 290 288 287 288 287 287 285 285 284 282 281 281 282 282 282 281 280 279 279 279 278 279 279 279 279 279 279 278 279 279 278 278 278 278 278 278 278 277
294 294 293 292 290 289 288 287 287 286 285 283 283 282 282 281 281 282 282 282 282 281 281 279 279 278 278 278 279 279 279 279 278 278 278 278 277 277 278 278 277 278 277
293 293 292 291 290 289 289 287 286 284 283 283 282 281 281 280 280 281 282 281 281 281 280 278 278 278 277 277 278 278 278 278 278 278 278 277 277 277 276 276 276 276 276
292 292 291 290 289 287 287 287 285 283 283 282 282 281 280 280 279 279 280 280 280 280 278 278 278 277 277 277 278 277 278 277 278 278 277 277 276 276 276 276 276 276 276
291 291 290 289 289 288 285 284 283 283 283 283 283 282 281 280 280 278 278 278 278 278 277 277 277 276 277 277 277 277 277 277 277 276 276 275 275 275 275 275 275 275 275
290 289 289 288 286 286 284 283 283 284 284 283 284 283 282 281 279 278 277 277 278 276 276 276 276 277 277 277 277 276 276 276 275 275 275 275 275 275 275 274 274 274 274
290 288 288 288 287 285 283 283 283 283 283 284 284 283 282 281 280 279 278 278 276 276 277 277 277 277 276 276 276 276 276 274 275 275 275 275 275 275 274 274 273 273 273
288 288 288 288 287 286 284 284 283 283 283 283 283 283 282 281 281 280 278 277 275 276 277 277 277 277 276 275 275 275 275 275 274 274 275 274 274 274 273 273 272 272 272
287 287 287 287 286 285 283 283 282 282 281 281 281 281 280 279 279 279 277 276 275 275 277 277 276 276 275 275 275 275 275 274 274 274 274 274 273 273 272 272 271 271 271
288 287 287 286 285 284 284 283 282 281 280 279 278 278 277 277 277 276 275 276 276 275 275 275 275 275 275 275 275 274 274 273 274 273 273 273 273 272 272 271 271 270 270
287 287 286 286 285 284 284 283 282 281 281 280 279 279 278 277 276 276 275 276 276 276 275 275 275 274 274 274 274 274 273 273 273 273 272 272 272 271 271 270 270 270 269
287 286 286 285 285 284 283 283 282 282 281 281 280 280 279 277 277 277 276 276 276 275 275 275 275 274 274 274 273 273 274 273 273 273 272 272 271 271 270 269 269 269 268
286 286 285 284 284 283 283 282 282 282 281 281 281 280 279 278 278 278 277 276 276 275 275 274 274 274 274 274 273 273 273 273 273 273 272 271 271 270 270 269 269 268 267
285 285 284 284 283 283 283 282 282 281 281 280 280 280 279 278 278 277 277 276 276 275 275 274 273 274 274 273 273 272 272 272 272 271 271 270 270 270 269 269 268 268 267
284 284 283 283 283 282 282 281 281 281 280 280 280 280 279 278 277 277 277 276 276 275 275 274 274 273 273 273 272 272 272 271 271 270 270 270 270 269 269 269 268 266 265
283 283 283 282 282 282 281 281 281 281 280 280 280 279 279 278 277 277 277 276 276 275 275 275 274 273 273 272 271 272 271 270 270 270 269 269 269 268 268 267 267 266 266